LEAS

Asturias

Airport
ICAO code
LEAS
Summary
ICAO Region
EUR
ICAO Territory
Location

Asturias, Spain,

Coordinates
43° 33' 34" N , 6° 1' 52" W
KCC
Airport BS
Bird Strike
Airport WX
Fog
Metar
LEAS 181530Z 09013KT 060V120 9999 SCT025 14/09 Q1022 NOSIG

Description

International airport serving Asturias in northern spain.

Climatology

Temperate Marine climate/Oceanic climate (Köppen climate classification Cfb). Moderately cool summer and comparatively warm winter with a temperature range of only 14°C. Prevailing south-westerly winds from the Atlantic Ocean.

Runways

Designator Length Width Surface Rops
11/29 2200 45 ASP Yes/Yes

Airport map

Aerial View

SKYbrary Partners:

Safety knowledge contributed by: